User: anonymous   Login
Location: Csohesd
(46.2500°N, 22.6167°E)
Time: 05:32:34
(UTC+00:00)
Language:

In-Cosmos 22 Rocket - Orbit

View from above orbital plane
View from above orbital plane
View from above satellite
View from above satellite

Ground track
Ground track

The orbit data is extracted from the following two-line orbital elements,

1 12646U 81075B   22017.77353972  .00000047  00000-0  17359-4 0  9995
2 12646  81.2249  61.5781 0066655 244.5209 180.4427 14.15929044 88932
Epoch (UTC): 17 January 2022 18:33:53
Eccentricity: 0.0066655
inclination: 81.2249°
perigee height: 791 km
apogee height: 887 km
right ascension of ascending node: 61.5781°
argument of perigee: 244.5209°
revolutions per day: 14.15929044
mean anomaly at epoch: 180.4427°
orbit number at epoch: 8893

The dashed part of the orbit path shows where the satellite is in the earth's shadow,  

DLR